STARLINK-32846, 62867

Orbit data source: Space-Track

STARLINK-32846, 62867 is a payload satellite owned by SpaceX/Seattle (US) in LEO that was launched on Sat, 01 Feb 2025 UTC via an FALCON 9 launch vehicle from the Air Force Western Test Range (AFWTR). Payload-class satellites include a variety of spacecraft equipped with specific instruments for various scientific and technological missions. These include communications satellites like Starlink; space stations such as the ISS; scientific satellites like the Hubble; Earth observation satellites from companies like Planet Labs, Umbra, and HawkEye 360; GPS; miniature CubeSats for education and research; and military/defense satellites.

Loading next visibility...
Identifier
62867, 2025-022P
Orbit
LEO
Last TLE update
18 hours ago
Origin
Manufacturer
SpaceX/Seattle
Mission
Operational Commercial Communications
Bus & Motor
STARLINK V2M, Unknown motor
Mass
730 kg wet, ~700 kg dry
Launch date (UTC)
2025-02-01 (5 months ago)
Launch vehicle
FALCON 9
Launch site
Air Force Western Test Range (AFWTR)
Object type
Payload
Rocket body
Debris
Shape & HBR
Box + 2 Pan, 29 m
Radar Cross Section
33.884 m², Large (>1 m²)

Expand to show TLE details & history

TLE from 18 hours ago
0 STARLINK-32846
1 62867U 25022P   25191.25564314  .00003141  00000-0  11815-3 0  9996
2 62867  53.1578 175.5973 0001640  94.7147 265.4041 15.30192780 24789
Epoch: 2025-07-10T06:08Z
TLE epoch observation values (Epoch: 2025-07-10T06:08:07.567Z)
Latitude
-0.00002°
Longitude
155.14122°
Altitude
476.226 km
Speed
7.629 km/s
True Right ascension
11h 42m 23s
True Declination
0° 00' 00"
Sunlit
Object was in daylight at epoch
Visualization orbit readout
Latitude
-51.47139°
Longitude
40.93998°
Altitude
494.109 km
Speed
7.617 km/s
Apparent Right ascension
02h 18m 47s
Apparent Declination
-48° 30' 26"
Sunlit
Object is in daylight
Visualization observer readout
Local Sidereal Time
12:46:07
Azimuth
234.829° WSW
Elevation
-71.407°
Doppler factor
1
Orbital elements
Apogee altitude
476.617 km
Perigee altitude
474.369 km
Semi-major axis
6,853.63 km
Eccentricity
0.00016
Inclination
53.1578°
RAAN
175.5973°
Arg. of periapsis
94.7147°
True anomaly
Unknown
Mean anomaly
265.4041°
Eccentric anomaly
Unknown
Mean motion
3.82527 °/min
Orbital period
94.11 mins
BSTAR
0.00011815
Loading maneuver chart data...
Loading SW <> Apogee altitude chart data...
Loading historical data...
Loading historical data...
Loading historical data...
Loading historical data...
Loading historical data...
Loading historical data...
Loading historical data...

STARLINK-32846 Visibility forecast

Observer location: undefined°, undefined°

Span
Click to sort rows by Start time (UTC) header in descending order
Start Az.
Max El. time (UTC)
Max El. Az.
Max El.
End time (UTC)
End Az.
5 mins2025-07-11 01:06:52.935Z195.799° SSW2025-07-11 01:08:52.935Z151.987° SSE31.173°2025-07-11 01:11:52.935Z69.937° E
4 mins2025-07-11 02:45:52.935Z292.584° NW2025-07-11 02:46:52.935Z318.232° NNW25.012°2025-07-11 02:49:52.935Z26.648° NE
5 mins2025-07-11 07:41:52.935Z332.617° NNW2025-07-11 07:43:52.935Z19.539° NNE30.297°2025-07-11 07:46:52.935Z96.038° ESE
5 mins2025-07-11 09:19:52.935Z277.381° WNW2025-07-11 09:21:52.935Z232.551° WSW24.458°2025-07-11 09:24:52.935Z172.01° S
|